Content
SEND FEEDBACK

Daily
Averages
Monthly
Summary
United States of America

BAKERSTOWN, PENNSYLVANIA


Home > North America > United States > Pennsylvania
Elevation: 1123 feet     Latitude: 40 39N     Longitude: 079 56W

WEATHER
 
SELECT A DAY
Number of Records: 442,535;   Date Range: 1/1/95 - 9/30/14
 
SHARE

PRINT THIS DATA

[ ← Previous Day ]
WEATHER ALMANAC - JANUARY 31, 2013
[ Next Day → ]
[ °C ]   °F
Weather ElementAverageHighLow
Temperature26.6 °F42.8 °F (12:35 am)21.2 °F (2:55 pm)
Dewpoint16.9 °F35.6 °F (12:35 am)8.6 °F (2:15 pm)
Humidity67.4 %87 % (12:55 am)54 % (10:35 am)
Barometer29.63 in29.82 in (10:55 pm)29.29 in (1:15 am)
Wind Speed17.9 mph31.1 mph (1:15 pm)
Wind Gust43.7 mph (6:15 am)
Weather ElementAverage
Visibility8.3 mi
Wind DirectionWSW (255.5 °)

Weather ElementTotal
Precipitation0.04 in
Heating Degree Days33 (Base 65)
Averaged from 69 records on January 31, 2013
WEATHER CONDITIONS BREAKOUT
WIND DIRECTION BREAKOUT
WEATHER BY HOUR - JANUARY 31, 2013
[ °C ]   °F
Local TimeTemperatureDewpointHumidityBarometerVisibilityWind DirectionWind SpeedGust SpeedPrecipitationEventsConditions
12:35 AM42.8 °F35.6 °F76 %29.31 in10.0 miWest (260°)21.9 mph40.3 mphOvercast
12:55 AM37.4 °F33.8 °F87 %29.30 in9.0 miWest (270°)12.7 mph38.0 mph0.02 inOvercast
1:15 AM37.4 °F30.2 °F75 %29.29 in10.0 miWest (260°)21.9 mph29.9 mphOvercast
1:35 AM37.4 °F30.2 °F75 %29.31 in10.0 miWest (260°)17.3 mph35.7 mphOvercast
1:55 AM35.6 °F30.2 °F81 %29.32 in8.0 miWest (280°)16.1 mph31.1 mphOvercast
2:15 AM33.8 °F28.4 °F81 %29.34 in10.0 miWest (260°)19.6 mph33.4 mphOvercast
2:35 AM33.8 °F28.4 °F81 %29.35 in10.0 miWSW (250°)17.3 mph33.4 mphMostly Cloudy
2:55 AM33.8 °F28.4 °F81 %29.36 in10.0 miWSW (250°)20.7 mph31.1 mphOvercast
3:15 AM33.8 °F26.6 °F75 %29.36 in10.0 miWSW (250°)17.3 mph28.8 mphOvercast
3:35 AM33.8 °F26.6 °F75 %29.38 in3.0 miWSW (250°)16.1 mph33.4 mphOvercast
3:55 AM32.0 °F24.8 °F75 %29.39 in10.0 miWest (260°)16.1 mph28.8 mphMostly Cloudy
4:15 AM33.8 °F21.2 °F60 %29.41 in10.0 miWest (270°)20.7 mph33.4 mphOvercast
4:35 AM32.0 °F19.4 °F60 %29.42 in10.0 miWest (270°)19.6 mph36.8 mphOvercast
4:55 AM32.0 °F19.4 °F60 %29.43 in10.0 miWest (260°)19.6 mph31.1 mphOvercast
5:15 AM30.2 °F19.4 °F64 %29.44 in10.0 miWest (270°)18.4 mph33.4 mphOvercast
5:35 AM30.2 °F19.4 °F64 %29.45 in10.0 miWest (270°)21.9 mph31.1 mphOvercast
5:55 AM30.2 °F19.4 °F64 %29.46 in10.0 miWest (260°)16.1 mph26.5 mphOvercast
6:15 AM30.2 °F24.8 °F80 %29.49 in0.5 miWest (260°)20.7 mph43.7 mphOvercast
6:35 AM28.4 °F24.8 °F86 %29.51 in0.5 miWest (260°)17.3 mph31.1 mph0.01 inOvercast
6:55 AM28.4 °F23.0 °F80 %29.52 in9.0 miWSW (250°)20.7 mph33.4 mph0.01 inOvercast
7:15 AM28.4 °F21.2 °F74 %29.53 in2.5 miWest (260°)17.3 mph32.2 mphOvercast
7:35 AM28.4 °F19.4 °F69 %29.55 in2.5 miWest (260°)17.3 mph39.1 mphOvercast
7:55 AM26.6 °F15.8 °F64 %29.56 in2.5 miWSW (250°)25.3 mph35.7 mphOvercast
8:15 AM28.4 °F15.8 °F59 %29.58 in8.0 miWest (260°)17.3 mph32.2 mphOvercast
8:35 AM26.6 °F17.6 °F69 %29.60 in5.0 miWSW (250°)26.5 mph33.4 mphOvercast
8:55 AM26.6 °F14.0 °F59 %29.61 in8.0 miWest (270°)15.0 mph34.5 mphOvercast
9:15 AM26.6 °F15.8 °F64 %29.62 in9.0 miWest (260°)15.0 mph26.5 mphOvercast
9:35 AM24.8 °F14.0 °F64 %29.63 in10.0 miWest (280°)16.1 mph28.8 mphOvercast
9:55 AM24.8 °F12.2 °F59 %29.64 in10.0 miWest (270°)19.6 mph33.4 mphMostly Cloudy
10:15 AM24.8 °F12.2 °F59 %29.65 in10.0 miWest (260°)26.5 mph34.5 mphOvercast
10:35 AM24.8 °F10.4 °F54 %29.67 in10.0 miWSW (250°)20.7 mph27.6 mphOvercast
10:55 AM24.8 °F14.0 °F64 %29.67 in6.0 miWSW (250°)26.5 mph33.4 mphOvercast
11:15 AM24.8 °F12.2 °F59 %29.68 in10.0 miWest (260°)20.7 mph29.9 mphOvercast
11:35 AM24.8 °F14.0 °F64 %29.68 in4.0 miWSW (250°)25.3 mph38.0 mphOvercast
11:55 AM24.8 °F14.0 °F64 %29.68 in10.0 miWSW (240°)16.1 mph34.5 mphMostly Cloudy
12:15 PM24.8 °F17.6 °F74 %29.67 in3.0 miWSW (240°)13.8 mph26.5 mphMostly Cloudy
12:35 PM24.8 °F15.8 °F69 %29.69 in2.5 miWSW (250°)17.3 mph25.3 mphOvercast
12:55 PM24.8 °F15.8 °F69 %29.68 in9.0 miWSW (250°)20.7 mph26.5 mphMostly Cloudy
1:15 PM24.8 °F10.4 °F54 %29.69 in10.0 miWSW (250°)31.1 mph39.1 mphOvercast
1:35 PM24.8 °F10.4 °F54 %29.69 in10.0 miWSW (250°)24.2 mph32.2 mphOvercast
1:55 PM23.0 °F10.4 °F59 %29.71 in8.0 miWest (260°)19.6 mph31.1 mphOvercast
2:15 PM23.0 °F8.6 °F54 %29.72 in10.0 miWSW (250°)20.7 mph34.5 mphOvercast
2:35 PM23.0 °F10.4 °F59 %29.72 in10.0 miWest (260°)17.3 mph28.8 mphOvercast
2:55 PM21.2 °F15.8 °F80 %29.74 in0.5 miWest (260°)17.3 mph32.2 mphOvercast
3:15 PM23.0 °F12.2 °F63 %29.74 in10.0 miWest (270°)21.9 mph32.2 mphOvercast
3:35 PM23.0 °F10.4 °F59 %29.75 in10.0 miWest (270°)23.0 mph38.0 mphOvercast
3:55 PM23.0 °F8.6 °F54 %29.76 in10.0 miWest (260°)19.6 mph38.0 mphMostly Cloudy
4:15 PM23.0 °F8.6 °F54 %29.76 in10.0 miWest (260°)18.4 mph31.1 mphMostly Cloudy
4:35 PM23.0 °F10.4 °F59 %29.77 in10.0 miWest (260°)15.0 mph26.5 mphOvercast
4:55 PM23.0 °F10.4 °F59 %29.77 in10.0 miWSW (250°)23.0 mph31.1 mphMostly Cloudy
5:15 PM23.0 °F10.4 °F59 %29.78 in10.0 miWSW (250°)17.3 mph24.2 mphMostly Cloudy
5:35 PM23.0 °F10.4 °F59 %29.78 in10.0 miWSW (240°)8.1 mph19.6 mphMostly Cloudy
5:55 PM23.0 °F10.4 °F59 %29.78 in10.0 miWSW (240°)15.0 mphOvercast
6:15 PM23.0 °F12.2 °F63 %29.78 in10.0 miWSW (240°)15.0 mph23.0 mphOvercast
6:35 PM23.0 °F12.2 °F63 %29.78 in10.0 miSW (230°)16.1 mph25.3 mphMostly Cloudy
6:55 PM21.2 °F14.0 °F74 %29.78 in10.0 miSW (230°)12.7 mph18.4 mphMostly Cloudy
7:15 PM23.0 °F15.8 °F74 %29.79 in10.0 miSW (230°)12.7 mphOvercast
7:35 PM23.0 °F15.8 °F74 %29.79 in5.0 miWSW (240°)12.7 mph24.2 mphOvercast
7:55 PM23.0 °F15.8 °F74 %29.79 in10.0 miWSW (250°)12.7 mph26.5 mphMostly Cloudy
8:15 PM23.0 °F15.8 °F74 %29.80 in4.0 miWSW (240°)15.0 mph20.7 mphOvercast
8:35 PM23.0 °F15.8 °F74 %29.80 in10.0 miWSW (240°)11.5 mph21.9 mphOvercast
9:15 PM23.0 °F15.8 °F74 %29.81 in9.0 miWSW (250°)13.8 mph20.7 mphMostly Cloudy
9:35 PM23.0 °F15.8 °F74 %29.81 in10.0 miWest (260°)15.0 mph21.9 mphMostly Cloudy
10:15 PM23.0 °F12.2 °F63 %29.81 in10.0 miWest (260°)13.8 mph25.3 mphScattered Clouds
10:35 PM21.2 °F12.2 °F68 %29.81 in10.0 miWest (260°)12.7 mph23.0 mphMostly Cloudy
10:55 PM21.2 °F12.2 °F68 %29.82 in10.0 miWSW (250°)12.7 mph20.7 mphMostly Cloudy
11:15 PM21.2 °F12.2 °F68 %29.81 in10.0 miWSW (250°)15.0 mph19.6 mphPartly Cloudy
11:35 PM21.2 °F14.0 °F74 %29.82 in2.5 miWest (270°)10.4 mph19.6 mphMostly Cloudy
11:55 PM21.2 °F12.2 °F68 %29.81 in10.0 miWest (270°)11.5 mph20.7 mphMostly Cloudy
Hourly data recorded from KBTP, located miles away from Bakerstown, Pennsylvania







STORIES FROM OUR PARTNERS